Location: Karcze
(52.0945°N, 22.4786°E)
Time: 00:29:28
(UTC+00:00)

A-11 Canister half - Pass Details

Date: 04 August 2021
Orbit: 1515 x 1685 km, 47.2° (Epoch: 19 September)

Event Time Altitude Azimuth Distance (km) Brightness Sun altitude
Rises 13:40:59 0° 204° (SSW) 4,742 12.1 39.7°
Reaches altitude 10° 13:44:29 10° 195° (SSW) 3,786 11.7 39.2°
Maximum altitude 13:52:27 31° 138° (SE) 2,583 10.3 38.1°
Drops below altitude 10° 14:00:39 10° 83° (E) 3,907 10.7 36.9°
Sets 14:04:18 0° 73° (ENE) 4,916 11.2 36.4°
